Weather History for Clyde, NU

Change the Weather History Date:

Wednesday, October 3, 2012

  Actual Average Record
Temperature  
Mean Temperature 32 °F -  
Max Temperature 37 °F 22 °F 37 °F (2012)
Min Temperature 26 °F 11 °F 6 °F (2010)
Degree Days  
Heating Degree Days 34    
Moisture  
Dew Point 27 °F    
Average Humidity 82    
Maximum Humidity 100    
Minimum Humidity 55    
Precipitation  
Precipitation 0.00 in 0.05 in - ()
Sea Level Pressure  
Sea Level Pressure 29.60 in    
Wind  
Wind Speed 16 mph ()    
Max Wind Speed 37 mph    
Max Gust Speed 46 mph    
Visibility 6.1 miles    
Events Snow    
Averages and records for this station are not official NWS values.
T = Trace of Precipitation, MM = Missing Value Source: Averaged Metar Reports

Daily Weather History Graph

Daily Weather History Graph

Search for Another Location

Airport:

Trip Planner

Search our weather history database for the weather conditions in past years. The results will help you decide how hot, cold, wet, or windy it might be!

Date:

Astronomy

Oct. 03, 2012 Rise Set
Actual Time 8:00 AM ADT 6:43 PM ADT
Civil Twilight 6:58 AM ADT 7:45 PM ADT
Nautical Twilight 5:44 AM ADT 8:58 PM ADT
Astronomical Twilight 4:17 AM ADT 10:23 PM ADT
Moon 5:16 PM ADT (10/3) 2:33 PM ADT (10/3)
Length of Visible Light 12h 46m
Length of Day
10h 42m
Waning Gibbous, 89% of the Moon is Illuminated
Oct 3
Waning Gibbous
Oct 8
Last Quarter
Oct 15
New
Oct 22
First Quarter
Oct 29
Full

Hourly Weather History & Observations

Time (ADT) Temp. Windchill Dew Point Humidity Pressure Visibility Wind Dir Wind Speed Gust Speed Precip Events Conditions
12:00 AM 37 °F - 31 °F 72% 29.20 in 9 mi SW 32.2 mph - -  
12:00 AM 37.4 °F 24.6 °F 32.0 °F 81% 29.20 in 9.0 mi SW 32.2 mph 42.6 mph N/A   Scattered Clouds
1:00 AM 35.6 °F 21.3 °F 32.0 °F 87% 29.21 in 9.0 mi SW 36.8 mph 44.9 mph N/A   Partly Cloudy
2:00 AM 35.6 °F 21.7 °F 30.2 °F 81% 29.23 in 9.0 mi SSW 34.5 mph 46.0 mph N/A   Clear
3:00 AM 35 °F - 29 °F 73% 29.28 in 9 mi WSW 26.5 mph - -  
3:00 AM 35.6 °F 23.2 °F 30.2 °F 81% 29.28 in 9.0 mi WSW 26.5 mph 36.8 mph N/A   Partly Cloudy
4:00 AM 35.6 °F 27.5 °F 28.4 °F 75% 29.33 in 9.0 mi SW 11.5 mph 17.3 mph N/A   Partly Cloudy
5:00 AM 33.8 °F 21.0 °F 28.4 °F 81% 29.34 in 9.0 mi SSW 25.3 mph 31.1 mph N/A   Partly Cloudy
6:00 AM 34 °F - 27 °F 68% 29.35 in 9 mi SW 25.3 mph - -  
6:00 AM 33.8 °F 22.2 °F 26.6 °F 75% 29.35 in 9.0 mi SW 20.7 mph 32.2 mph N/A   Partly Cloudy
7:00 AM 33.8 °F 22.2 °F 26.6 °F 75% 29.37 in 9.0 mi SSW 20.7 mph - N/A   Clear
9:00 AM 34 °F - 25 °F 59% 29.44 in 9 mi SW 12.7 mph - -  
9:00 AM 33.8 °F 25.3 °F 24.8 °F 70% 29.44 in 9.0 mi SW 11.5 mph 18.4 mph N/A   Clear
10:00 AM 35.6 °F 29.2 °F 26.6 °F 70% 29.46 in 25.0 mi SW 8.1 mph - N/A   Mostly Cloudy
12:00 PM 35 °F - 25 °F 57% 29.50 in 9 mi SW 8.1 mph - -   Overcast
12:00 PM 35.6 °F 29.9 °F 24.8 °F 65% 29.50 in 25.0 mi SW 6.9 mph - N/A   Mostly Cloudy
1:00 PM 35.6 °F 25.9 °F 24.8 °F 65% 29.51 in 25.0 mi West 16.1 mph - N/A   Mostly Cloudy
2:00 PM 33.8 °F 24.8 °F 24.8 °F 70% 29.54 in 25.0 mi WSW 12.7 mph - N/A   Mostly Cloudy
3:00 PM 34 °F - 25 °F 58% 29.56 in 9 mi WSW 12.7 mph - -   Overcast
3:00 PM 33.8 °F 24.8 °F 24.8 °F 70% 29.56 in 25.0 mi WSW 12.7 mph - N/A   Overcast
4:00 PM 33.8 °F 23.9 °F 24.8 °F 70% 29.59 in 25.0 mi SW 15.0 mph - N/A   Overcast
5:00 PM 32.0 °F 23.6 °F 24.8 °F 75% 29.62 in 25.0 mi West 10.4 mph - N/A   Overcast
6:00 PM 33 °F - 23 °F 55% 29.65 in 9 mi West 9.2 mph - -  
6:00 PM 32.0 °F 24.8 °F 23.0 °F 69% 29.65 in 25.0 mi West 8.1 mph - N/A   Overcast
6:41 PM - - - N/A% - 25.0 mi WNW 10.4 mph - N/A   Unknown
7:00 PM 32.0 °F 24.2 °F 23.0 °F 69% 29.68 in 15.0 mi WNW 9.2 mph - N/A Snow Light Snow
8:00 PM 30.2 °F 21.9 °F 24.8 °F 80% 29.71 in 15.0 mi West 9.2 mph - N/A Snow Light Snow
8:15 PM 30.2 °F 20.8 °F 26.6 °F 86% 29.70 in 9.0 mi WNW 11.5 mph - N/A Snow Light Snow
8:35 PM 28.4 °F 19.1 °F 26.6 °F 93% 29.71 in 8.0 mi WNW 10.4 mph - N/A Snow Light Snow
8:39 PM 28.4 °F 19.1 °F 26.6 °F 93% 29.71 in 9.0 mi WNW 10.4 mph - N/A   Overcast
8:42 PM 28.4 °F 19.1 °F 26.6 °F 93% 29.71 in 9.0 mi West 10.4 mph - N/A Snow Light Snow
9:00 PM 29 °F - 27 °F 88% 29.73 in 6 mi West 9.2 mph - -   Overcast
9:00 PM 28.4 °F 20.4 °F 26.6 °F 93% 29.73 in 6.0 mi West 8.1 mph - N/A Snow Light Snow
9:11 PM 28.4 °F 21.2 °F 26.6 °F 93% 29.73 in 2.5 mi West 6.9 mph - N/A Snow Light Snow
9:29 PM 28.4 °F 19.7 °F 26.6 °F 93% 29.74 in 2.5 mi West 9.2 mph - N/A   Overcast
9:31 PM 28.4 °F 19.7 °F 24.8 °F 86% 29.74 in 2.5 mi West 9.2 mph - N/A   Overcast
9:32 PM 28.4 °F 20.4 °F 24.8 °F 86% 29.74 in 5.0 mi West 8.1 mph - N/A   Mostly Cloudy
9:50 PM 28.4 °F 19.7 °F 26.6 °F 93% 29.74 in 8.0 mi West 9.2 mph - N/A   Overcast
10:00 PM 28.4 °F 21.2 °F 26.6 °F 93% 29.76 in 5.0 mi West 6.9 mph - N/A   Overcast
10:02 PM 28.4 °F 21.2 °F 26.6 °F 93% 29.75 in 4.0 mi West 6.9 mph - N/A Snow Light Snow
10:07 PM 28.4 °F 20.4 °F 26.6 °F 93% 29.75 in 2.5 mi West 8.1 mph - N/A Snow Light Snow
10:17 PM 28.4 °F 20.4 °F 26.6 °F 93% 29.75 in 1.4 mi WSW 8.1 mph - N/A Snow Light Snow
10:21 PM 28.4 °F 22.2 °F 26.6 °F 93% 29.76 in 1.4 mi WSW 5.8 mph - N/A Snow Light Snow
10:33 PM 28.4 °F 22.2 °F 26.6 °F 93% 29.76 in 2.0 mi SW 5.8 mph - N/A Snow Light Snow
10:42 PM 28.4 °F 23.3 °F 26.6 °F 93% 29.76 in 1.6 mi SW 4.6 mph - N/A Snow Light Snow
10:47 PM 28.4 °F 21.2 °F 26.6 °F 93% 29.76 in 1.4 mi SW 6.9 mph - N/A Snow Light Snow
10:50 PM 28.4 °F 22.2 °F 26.6 °F 93% 29.76 in 1.1 mi SW 5.8 mph - N/A Snow Light Snow
10:52 PM 28.4 °F 23.3 °F 26.6 °F 93% 29.76 in 1.0 mi SW 4.6 mph - N/A Snow Light Snow
10:54 PM 28.4 °F 22.2 °F 26.6 °F 93% 29.76 in 0.8 mi SW 5.8 mph - N/A Snow Light Snow
11:00 PM 28.4 °F 23.3 °F 26.6 °F 93% 29.78 in 0.8 mi SW 4.6 mph - N/A Snow Light Snow
11:29 PM 26.6 °F 21.2 °F 26.6 °F 100% 29.77 in 0.6 mi West 4.6 mph - N/A Snow Light Snow
11:56 PM 26.6 °F 19.1 °F 26.6 °F 100% 29.77 in 1.0 mi West 6.9 mph - N/A Snow Light Snow
11:59 PM 26.6 °F 19.1 °F 26.6 °F 100% 29.77 in 1.1 mi West 6.9 mph - N/A Snow Light Snow